Wind_Speed
13 14 16 17 17 17 15 13 17 18 20 22 24 24 26 27 28 28 31 32 32 33 33 35 40 39 38 39 43 45 48 50 53 55 54 53 55 49
13 15 16 17 16 15 13 13 15 18 20 21 23 24 25 27 29 30 31 32 32 32 33 34 38 39 36 38 41 43 46 47 52 54 53 52 54 52
13 16 17 17 17 14 13 14 16 17 20 21 23 24 25 27 29 31 31 32 32 32 33 34 37 38 36 36 37 40 43 44 49 53 53 53 52 53
13 16 17 17 16 15 15 16 16 17 20 22 24 24 26 27 29 31 31 31 31 32 32 35 35 36 35 34 35 37 40 41 46 50 52 54 52 51
13 17 17 17 15 14 14 15 16 19 20 23 25 26 27 28 29 30 31 31 31 32 32 35 34 35 35 34 34 34 37 38 42 46 51 54 53 51
13 16 17 16 16 13 13 15 17 19 21 23 25 25 27 28 28 29 30 29 30 31 31 34 34 35 36 34 33 32 34 36 38 42 47 51 54 53
15 17 17 16 16 15 15 15 18 21 21 23 25 25 26 27 28 28 28 29 28 30 31 33 35 35 34 36 32 32 33 33 35 38 43 47 51 53
16 19 18 16 16 16 16 16 18 22 22 23 25 26 26 27 28 28 28 28 29 30 31 32 34 36 34 35 32 31 31 33 35 35 38 42 45 49
17 20 20 18 17 18 19 19 20 23 24 25 26 27 27 28 28 28 27 27 28 29 30 32 34 35 35 34 32 30 31 33 33 34 35 38 42 45
19 22 22 21 20 19 18 19 22 25 26 26 27 27 27 28 28 28 28 27 27 28 29 31 32 32 33 35 32 29 27 31 32 31 34 35 37 41
20 23 24 23 22 21 20 21 21 24 26 27 28 29 27 27 28 27 27 27 27 28 29 30 31 31 33 34 31 28 25 28 31 30 32 33 35 35
22 24 25 25 24 22 21 22 23 23 25 26 27 29 27 27 28 28 28 27 27 28 29 30 31 32 33 34 31 29 25 27 30 31 31 31 32 33
23 26 27 26 25 23 22 23 23 23 24 26 27 27 28 27 28 28 28 28 28 28 29 30 31 32 32 35 32 29 27 27 30 30 29 30 31 32
26 28 28 28 25 23 24 25 24 24 24 25 26 26 26 27 28 28 28 28 29 29 30 31 32 32 32 34 34 28 27 28 29 34 30 27 29 29
29 30 30 28 26 25 26 27 26 26 25 25 26 26 26 27 28 28 30 30 30 30 30 31 31 32 32 32 32 30 27 28 29 30 36 32 29 30
31 31 31 30 29 29 28 29 29 29 28 27 27 25 27 27 28 29 31 32 31 31 30 32 32 32 31 31 31 30 27 27 29 30 32 37 34 28
33 34 32 32 32 32 32 31 31 31 31 31 28 27 29 29 30 30 32 34 34 36 34 33 33 33 32 31 32 29 29 29 28 31 31 34 37 30
37 34 33 32 35 37 36 34 33 34 35 34 31 31 31 33 33 33 34 36 38 38 39 37 35 35 34 31 35 32 30 30 31 32 35 33 35 36
34 32 33 35 39 41 40 39 38 38 37 35 36 34 32 33 36 36 37 39 41 42 41 38 38 37 35 33 32 36 35 33 32 32 34 35 33 34
38 35 37 41 43 44 43 42 43 42 38 37 36 35 34 35 37 38 40 42 44 46 43 40 40 41 37 35 30 34 38 36 34 34 33 35 35 33
45 43 41 45 47 46 45 45 45 43 40 37 36 39 43 42 41 42 44 45 47 48 46 44 43 44 42 38 35 34 38 38 37 35 33 34 36 35
48 46 46 47 49 49 50 49 47 45 42 42 42 43 46 46 49 49 47 47 47 49 49 50 47 46 44 44 40 39 37 40 42 40 37 35 35 36
49 48 46 49 52 55 53 49 48 45 45 46 47 50 52 53 54 55 53 51 50 54 54 50 49 51 47 48 44 43 42 40 43 44 44 41 37 39
Wind_Direction
327 330 325 327 328 321 313 306 305 312 317 319 320 325 324 324 325 329 332 338 340 342 344 347 351 347 344 346 350 353 354 356 359 358 358 360 1 1
319 323 320 322 327 321 313 305 307 312 313 320 321 321 322 323 326 330 333 337 340 341 343 346 350 348 342 345 350 352 354 357 1 2 3 4 4 5
316 318 317 318 325 326 318 309 308 310 316 322 323 322 322 325 329 330 334 337 339 341 342 345 349 349 341 343 349 352 354 358 4 4 8 7 6 8
313 313 310 313 321 324 318 309 308 313 322 325 325 324 327 328 329 331 334 336 339 341 343 345 346 348 344 344 349 349 353 359 6 7 11 13 9 9
307 306 306 309 310 318 320 315 316 319 324 325 325 328 327 329 332 332 332 335 339 341 343 346 347 348 347 345 348 348 352 359 5 7 9 13 12 11
299 301 305 302 302 310 316 317 315 317 322 323 324 329 329 331 330 330 332 336 338 340 342 344 348 348 350 345 343 347 349 356 2 6 8 12 13 13
296 299 299 295 296 298 305 309 311 311 315 319 322 328 330 329 330 330 331 334 336 339 342 344 347 349 348 346 342 345 349 351 357 3 6 8 12 13
293 296 294 289 291 292 298 304 307 308 310 312 316 322 326 329 330 330 332 334 335 339 340 343 346 349 349 346 343 342 347 350 352 358 3 6 10 12
289 293 289 284 285 291 296 300 302 302 306 309 310 316 322 325 328 330 332 333 335 338 339 342 345 348 350 347 344 341 344 345 348 355 1 4 8 12
287 289 286 281 281 286 291 296 298 300 302 307 308 309 315 320 324 328 330 333 335 335 338 340 343 346 349 350 347 341 338 343 345 350 357 2 4 8
283 285 284 278 277 280 288 294 296 302 305 305 306 307 310 316 321 325 327 329 331 333 335 336 340 345 345 348 345 342 334 340 343 344 349 356 2 4
279 281 281 278 275 277 285 291 295 302 304 307 308 311 310 312 317 321 325 326 328 331 332 334 338 341 341 343 343 344 335 332 339 343 345 350 353 358
273 275 277 277 273 275 281 285 292 297 302 306 311 313 310 310 312 317 320 323 324 327 328 331 334 336 337 338 342 341 337 329 331 335 339 343 347 349
267 272 274 274 270 270 273 280 286 291 297 302 307 310 309 309 308 312 315 318 320 323 327 328 331 332 332 335 338 338 337 334 331 331 331 335 338 341
267 269 271 270 267 266 269 276 281 286 291 295 298 304 308 305 304 306 309 313 316 321 324 323 325 327 327 330 330 333 333 337 334 330 331 328 331 334
263 264 265 264 263 264 267 272 278 282 286 287 290 294 301 301 299 301 304 307 310 314 317 319 320 320 322 322 324 326 329 331 332 331 330 328 327 327
259 261 260 259 261 264 266 271 276 280 282 284 287 289 291 296 296 297 297 300 302 306 310 315 316 316 316 315 317 319 320 319 322 324 329 327 324 321
260 259 259 260 261 266 269 271 272 275 280 285 285 286 288 291 294 294 293 294 298 301 305 312 313 312 311 310 311 311 311 315 315 314 319 322 321 320
256 253 256 256 258 264 269 272 273 273 277 281 284 285 286 288 289 291 290 291 293 295 298 306 308 306 306 306 304 307 307 309 312 312 315 320 318 317
248 250 250 253 257 262 266 269 271 273 275 279 283 283 286 287 287 287 287 288 290 292 295 300 301 299 303 300 300 296 304 307 309 309 312 316 317 314
250 251 249 253 261 265 267 268 269 271 274 279 283 289 288 290 291 291 289 286 286 290 294 295 293 298 296 298 296 291 297 302 305 308 307 307 314 315
247 251 254 258 263 267 270 271 271 271 274 277 280 284 286 284 288 290 291 289 287 286 289 290 291 293 291 292 296 290 292 295 300 304 305 304 306 309
250 254 260 262 267 268 268 267 268 269 274 274 276 281 281 286 288 289 286 286 284 286 285 284 284 286 286 287 291 289 290 292 295 297 301 301 303 304
Height
5813 5811 5810 5808 5807 5805 5803 5802 5800 5798 5795 5794 5789 5786 5781 5778 5774 5770 5764 5759 5753 5747 5740 5734 5727 5719 5712 5705 5697 5688 5678 5667 5657 5645 5632 5619 5607 5594
5809 5809 5807 5805 5803 5803 5801 5800 5797 5796 5793 5790 5786 5783 5779 5775 5770 5766 5761 5756 5749 5744 5738 5731 5724 5717 5710 5703 5695 5686 5677 5667 5657 5645 5633 5620 5608 5596
5806 5805 5803 5801 5799 5799 5798 5796 5794 5792 5789 5786 5784 5780 5777 5772 5767 5763 5758 5752 5747 5741 5735 5729 5722 5715 5708 5701 5693 5685 5677 5667 5657 5646 5635 5622 5610 5598
5803 5801 5799 5797 5795 5795 5794 5793 5791 5788 5785 5782 5780 5776 5772 5768 5764 5759 5754 5749 5744 5738 5733 5727 5720 5713 5706 5699 5691 5684 5676 5667 5658 5648 5636 5625 5613 5601
5798 5797 5795 5793 5792 5791 5791 5788 5786 5784 5781 5778 5775 5772 5769 5765 5760 5756 5751 5746 5741 5736 5730 5724 5718 5711 5704 5697 5691 5684 5676 5667 5659 5649 5639 5627 5616 5605
5794 5792 5790 5789 5788 5787 5787 5785 5783 5780 5777 5774 5772 5769 5765 5761 5757 5753 5747 5743 5738 5732 5728 5721 5715 5708 5702 5695 5689 5683 5675 5667 5659 5650 5640 5629 5619 5608
5790 5787 5786 5784 5784 5783 5782 5781 5779 5776 5773 5771 5768 5765 5762 5758 5754 5749 5744 5739 5735 5730 5724 5719 5712 5706 5699 5692 5687 5681 5675 5667 5659 5650 5642 5633 5622 5612
5784 5783 5781 5780 5779 5779 5777 5776 5774 5772 5769 5767 5764 5761 5757 5754 5749 5745 5741 5736 5732 5727 5721 5716 5709 5703 5697 5690 5684 5678 5673 5667 5660 5652 5643 5635 5625 5616
5778 5777 5776 5775 5774 5773 5772 5771 5769 5767 5765 5762 5760 5756 5752 5749 5745 5741 5737 5733 5729 5724 5719 5713 5706 5700 5694 5688 5682 5677 5671 5666 5659 5652 5645 5637 5628 5619
5772 5772 5770 5770 5769 5767 5766 5765 5764 5762 5759 5757 5754 5751 5748 5744 5741 5737 5733 5729 5724 5720 5715 5709 5704 5698 5691 5685 5679 5674 5670 5664 5658 5651 5644 5637 5630 5622
5766 5766 5764 5764 5763 5762 5760 5759 5758 5756 5754 5751 5748 5745 5742 5739 5736 5732 5728 5724 5720 5715 5711 5706 5700 5695 5689 5683 5676 5671 5666 5661 5655 5649 5643 5636 5630 5623
5759 5759 5758 5757 5757 5756 5754 5753 5751 5750 5748 5745 5742 5739 5736 5733 5730 5727 5723 5719 5715 5711 5707 5702 5697 5691 5686 5680 5673 5667 5663 5657 5653 5647 5641 5636 5630 5623
5752 5752 5751 5750 5750 5749 5747 5745 5745 5743 5741 5739 5736 5734 5731 5728 5724 5721 5718 5714 5710 5707 5702 5697 5692 5687 5681 5675 5670 5664 5658 5653 5648 5643 5638 5633 5628 5622
5744 5744 5744 5743 5742 5742 5739 5738 5737 5736 5735 5733 5730 5727 5724 5721 5718 5715 5712 5709 5704 5701 5697 5692 5687 5682 5676 5671 5665 5661 5654 5650 5645 5641 5635 5629 5623 5618
5736 5736 5735 5734 5734 5733 5731 5730 5729 5728 5727 5725 5722 5720 5717 5714 5711 5708 5705 5703 5698 5695 5691 5686 5682 5677 5671 5667 5661 5656 5651 5646 5642 5637 5631 5626 5621 5615
5728 5728 5727 5726 5725 5724 5723 5722 5721 5720 5719 5717 5715 5712 5709 5706 5703 5701 5698 5695 5692 5687 5684 5680 5676 5671 5666 5660 5656 5651 5647 5642 5636 5631 5627 5620 5617 5611
5720 5719 5718 5717 5716 5714 5714 5714 5713 5712 5710 5708 5706 5703 5700 5697 5694 5692 5690 5687 5684 5679 5676 5673 5668 5664 5660 5654 5650 5645 5640 5636 5631 5626 5621 5616 5609 5607
5711 5711 5710 5709 5706 5704 5703 5704 5703 5702 5700 5699 5698 5695 5692 5689 5686 5683 5681 5679 5676 5671 5668 5664 5661 5656 5652 5648 5643 5638 5633 5628 5624 5619 5614 5611 5605 5598
5703 5702 5701 5699 5696 5694 5694 5693 5693 5692 5690 5689 5687 5685 5682 5680 5678 5675 5672 5669 5666 5662 5659 5655 5651 5646 5644 5641 5636 5629 5626 5621 5617 5612 5607 5603 5598 5592
5690 5690 5689 5687 5686 5684 5684 5684 5682 5681 5680 5678 5677 5675 5672 5669 5667 5665 5662 5659 5656 5652 5649 5646 5641 5635 5634 5632 5629 5621 5616 5612 5609 5605 5599 5594 5590 5586
5678 5678 5676 5674 5674 5673 5673 5672 5671 5670 5669 5668 5666 5664 5661 5659 5656 5654 5651 5648 5644 5642 5639 5636 5630 5625 5622 5621 5619 5614 5607 5603 5598 5595 5592 5586 5581 5578
5663 5664 5664 5663 5662 5661 5661 5660 5660 5659 5657 5656 5653 5652 5649 5646 5644 5641 5638 5636 5633 5629 5628 5624 5619 5614 5610 5608 5606 5603 5598 5593 5588 5584 5581 5576 5573 5568
5651 5651 5651 5651 5650 5647 5647 5646 5646 5645 5644 5642 5640 5638 5635 5633 5630 5627 5623 5621 5618 5615 5611 5609 5605 5601 5598 5595 5592 5590 5587 5582 5577 5572 5569 5564 5562 5557